Torna al catalogo

STARLINK-5313

AttivoComunicazioniVLEO
NORAD 55313·PAYLOAD·🇺🇸 United States

Lanciato Jan 19, 2023 da Vandenberg Space Force Base

Loading…

Prossimi Passaggi (prossime 24 ore)

TLE

AggiornatoSource: CelesTrak SupGP

Epoca: Sep 14, 2026, 21:22 UTC

1 55313C 23010AW  26257.89076389  .00835740  00000+0  68995-1 0  2576
2 55313  69.9999 247.4409 0003170 268.3640  30.6723 14.98490067    10

Traccia STARLINK-5313 in tempo reale con AllMySat

Download on the App Store